Location: Im Fang
(46.6019°N, 7.2397°E)
Time: 14:55:56
(UTC+00:00)

Cosmos 1943 - Pass Details

Date: 08 December 2019
Orbit: 835 x 849 km, 71.0° (Epoch: 25 January)

Event Time Altitude Azimuth Distance (km) Brightness Sun altitude
Exits shadow 06:12:00 - 317° (NW) 2,634 5.2 -8.3°
Reaches altitude 10° 06:12:33 10° 314° (NW) 2,454 5.0 -8.3°
Maximum altitude 06:17:17 29° 256° (WSW) 1,496 4.1 -7.5°
Drops below altitude 10° 06:22:01 10° 198° (SSW) 2,441 5.7 -6.8°
Sets 06:24:44 0° 188° (S) 3,372 6.6 -6.4°
